sat.trackr.live / text

‹ back to catalog

STARLINK-33854

NORAD 63635 · 2025-083B

PAYLOAD ACTIVE UNKNOWN

§ Identity

Operator
Country
US
Launch date
2025-04-25
Launch site
AFETR
Launch vehicle
Mass (kg)
RCS (m²)

Purposes: comms

External: N2YO · Heavens-Above · Gunter

§ Orbital elements

Epoch: 2026-05-24T21:26:01.254048Z

Period
94.27 min
Inclination
42.9994°
Eccentricity
0.0001815
Mean motion
15.27601072 rev/d
Perigee alt
481.7 km
Apogee alt
484.2 km
Semi-major
6,861.1 km
B*
1.0496e-3
RAAN
294.6512°
Arg perigee
280.0820°
Mean anomaly
79.9826°
Rev number
6,172

§ Raw data

STARLINK-338541 63635U 25083B   26144.89307007  .00028751  00000+0  10496-2 0  99962 63635  42.9994 294.6512 0001815 280.0820  79.9826 15.27601072 61724

JSON: /api/v1/satellites/63635 · /tle

For live sub-satellite position, see the globe view (requires WebGL).

§ Visibility from observer

Set your observer location to see the next 7 days of passes ≥ 10°. The values pass through the URL so the page stays shareable.

No JS? Fill the form by hand. The geolocation button needs JavaScript.